Theta_e
358 358 359 359 360 361 361 360 359 360 360 361 360 360 360 359 360 362 360 361 360 356 352 350 348 345 341 336 326 322 320 322 322 322 320 320 318 316 317 320 320 317 315
357 358 359 360 360 360 361 360 360 360 361 362 362 361 361 361 362 361 361 363 360 354 351 349 344 341 333 326 322 322 322 321 321 321 322 317 317 317 319 319 319 317 314
356 359 361 361 362 362 362 362 361 361 361 361 360 360 361 362 363 362 365 360 356 353 351 346 343 334 326 324 324 323 323 322 321 319 317 317 319 318 319 319 318 316 314
355 359 361 362 362 363 363 363 363 363 362 361 361 361 362 363 363 363 361 358 353 351 347 343 334 326 325 325 324 323 322 322 320 316 314 318 317 318 318 319 319 317 315
355 358 361 361 361 362 362 363 362 362 362 362 360 361 363 362 360 366 358 354 351 346 338 331 326 323 321 321 322 323 323 319 318 315 314 316 317 317 317 317 318 317 316
359 360 360 361 361 362 362 362 362 362 362 362 361 362 363 361 364 363 356 354 347 336 325 319 314 314 312 312 311 313 316 320 318 314 312 314 314 315 317 318 319 320 318
362 362 362 363 363 363 362 362 362 363 363 363 363 363 363 365 365 364 355 349 341 333 325 324 319 318 320 322 321 321 316 312 311 312 312 312 311 313 316 317 319 321 318
363 363 363 365 364 364 365 364 364 364 364 364 364 365 369 365 365 354 350 346 339 333 328 324 323 324 324 323 322 320 315 314 312 313 312 311 311 314 316 318 319 321 319
360 363 364 365 365 365 365 365 365 365 366 365 364 365 366 363 358 349 347 342 336 332 328 326 325 323 321 322 322 322 321 320 314 313 310 310 312 314 313 316 318 319 320
361 362 363 364 365 366 366 367 366 366 366 362 365 370 364 362 354 345 345 340 335 332 327 323 322 319 320 322 323 322 321 319 315 314 313 312 315 317 314 314 316 317 317
360 361 363 364 366 366 367 368 368 367 365 366 368 368 359 360 350 344 343 341 337 332 324 321 318 314 317 320 320 321 320 319 315 313 312 311 314 315 316 312 313 314 313
361 362 363 365 364 366 369 369 368 367 369 368 369 363 356 350 351 342 341 342 337 332 326 321 316 314 312 313 313 315 316 317 313 313 312 311 313 314 317 313 313 314 313
363 364 365 366 365 367 369 369 368 368 363 370 364 359 353 349 344 338 338 338 336 334 327 321 314 313 312 312 313 315 316 317 313 313 313 311 312 313 319 317 315 314 315
365 367 367 368 367 368 367 366 359 360 360 367 363 357 354 350 343 334 334 334 335 330 324 317 313 314 316 314 315 317 317 315 313 314 313 311 313 314 319 320 319 319 319
366 366 367 366 364 366 361 357 354 358 359 363 361 358 357 354 345 337 336 336 333 326 320 316 316 317 318 315 319 316 314 315 314 314 313 312 312 313 317 319 320 320 320
367 366 363 358 360 359 360 357 356 360 360 361 361 360 358 358 349 339 337 335 332 321 320 318 319 320 319 319 319 318 316 315 314 314 313 311 312 312 312 315 320 321 320
358 356 353 353 356 358 359 361 363 358 359 359 360 359 360 357 352 341 337 333 330 321 322 321 322 322 320 320 319 318 316 315 314 314 314 312 312 312 312 313 320 321 320
369 361 358 355 354 356 360 361 361 362 361 358 358 358 356 353 350 342 334 329 321 322 325 324 324 322 321 320 319 318 317 315 314 314 314 313 312 312 312 312 315 319 319
356 363 366 364 364 363 363 363 362 361 362 359 343 352 348 348 345 341 331 330 326 326 327 325 325 323 321 320 319 319 317 315 314 314 314 313 312 311 311 311 311 312 315
350 361 363 364 363 362 362 363 364 365 364 359 353 346 341 339 331 329 325 331 333 333 328 326 325 324 322 321 319 319 318 315 314 314 314 314 312 311 311 311 312 312 311
342 352 357 359 361 363 364 362 363 362 362 362 358 348 342 337 330 331 327 330 337 337 331 326 325 324 322 321 320 319 318 316 315 314 314 314 313 313 312 312 312 312 311
335 340 345 345 348 352 355 357 358 359 360 358 357 346 342 336 333 326 325 329 335 339 334 326 325 324 322 321 320 320 318 317 316 314 313 313 313 313 312 312 312 312 311
330 332 335 334 335 338 341 345 354 355 356 356 357 343 329 333 335 334 332 332 336 339 336 327 326 324 322 321 320 319 319 318 317 315 313 313 313 313 312 312 312 312 312
323 325 328 330 329 330 328 333 338 339 348 351 353 349 338 335 336 336 335 332 333 336 337 329 326 324 323 321 321 319 319 318 317 316 313 313 313 312 313 312 312 312 312
320 320 322 323 323 325 326 326 326 327 328 335 342 347 343 339 337 336 335 333 334 334 336 331 326 325 323 322 320 319 318 318 317 316 314 313 313 312 313 312 312 312 312
318 319 318 319 320 321 321 323 323 320 320 321 327 333 340 342 341 341 339 336 335 335 335 328 326 326 324 322 320 319 317 317 317 316 314 313 313 313 313 312 312 312 312
Wind_Speed
30 29 26 25 24 22 20 19 17 14 12 11 10 10 11 11 11 10 12 10 6 6 7 7 8 6 7 10 11 11 12 12 9 9 11 9 11 13 15 14 13 8 7
30 28 27 25 23 23 22 19 16 15 12 10 10 9 9 9 9 10 9 6 5 8 6 7 7 6 7 9 9 10 11 11 10 6 5 12 13 16 15 10 7 9 5
31 29 26 26 23 22 22 20 17 15 12 11 10 9 8 8 9 7 3 5 8 8 8 9 8 8 10 11 13 11 8 9 10 10 12 13 14 17 17 15 8 5 8
31 29 28 26 24 23 22 20 16 14 13 13 10 9 7 7 7 1 5 8 10 11 11 10 9 9 10 9 10 9 11 11 9 13 14 14 18 18 16 18 15 10 7
31 30 28 26 24 22 20 18 16 14 13 11 9 8 6 7 8 8 9 11 12 13 12 12 10 12 9 12 11 11 13 15 14 15 15 15 18 19 18 17 15 8 5
29 30 28 25 24 23 20 18 16 14 12 10 9 8 6 3 4 3 13 14 13 13 14 14 14 13 13 16 16 17 16 14 16 16 15 16 18 18 15 18 14 11 10
28 28 26 26 23 22 20 19 18 16 13 11 9 7 6 7 3 7 17 13 13 14 14 14 11 11 12 12 12 13 17 18 17 16 15 16 19 17 14 20 16 10 9
24 25 26 26 25 21 20 19 18 17 15 13 10 9 8 7 8 19 18 14 14 13 12 11 12 10 8 8 8 8 11 13 15 14 14 14 17 20 22 17 21 1 5
26 25 25 26 25 24 21 19 18 17 15 13 11 11 12 13 17 22 17 15 15 13 12 11 11 10 11 8 7 6 7 5 9 12 14 18 20 25 29 19 21 18 10
25 25 24 24 23 23 22 20 19 18 16 14 13 13 13 20 22 23 18 15 16 15 13 12 12 12 12 7 5 5 7 9 8 11 11 12 15 18 26 23 19 19 18
22 22 22 23 22 20 20 21 20 18 16 14 15 14 14 22 27 23 18 15 15 14 13 13 12 13 11 7 6 5 6 6 4 9 12 13 12 15 16 25 21 21 18
21 22 22 22 22 20 20 20 19 18 17 15 16 14 16 19 27 25 18 14 17 15 14 13 17 14 12 9 7 12 8 1 7 10 12 14 13 11 11 14 23 22 26
20 20 22 21 21 21 21 21 20 19 19 17 16 16 16 17 25 24 18 19 18 14 15 18 20 15 12 9 10 6 2 1 7 9 12 13 11 10 9 10 9 17 22
19 19 20 21 20 21 20 20 20 20 20 19 19 18 20 21 23 24 21 23 19 17 19 20 22 15 9 10 8 3 3 5 7 9 10 11 11 12 11 8 9 13 16
20 20 20 20 22 19 18 17 20 19 20 20 20 21 24 25 27 33 29 25 22 20 22 20 18 16 12 9 7 6 6 5 6 7 9 9 11 12 12 12 13 15 19
18 19 21 20 20 20 19 11 10 12 16 16 18 19 21 20 25 33 30 25 26 29 21 20 17 16 16 13 10 9 8 6 5 7 8 9 10 11 11 12 14 17 17
18 18 18 18 20 20 19 17 14 6 11 14 17 20 18 22 23 33 32 31 30 28 19 19 17 17 16 15 14 11 10 9 7 6 8 9 8 9 10 12 13 14 16
6 11 15 19 18 18 14 14 15 15 14 12 15 17 15 18 20 33 33 29 29 26 19 19 19 19 17 17 15 14 13 11 9 7 6 8 8 9 10 11 11 11 12
20 13 6 6 5 5 9 7 9 11 13 13 11 17 17 17 23 34 38 30 27 24 19 19 18 18 18 18 17 15 16 14 12 10 7 8 9 10 10 11 12 11 12
23 19 14 9 9 11 8 7 3 4 9 9 12 13 20 24 31 35 36 23 23 23 22 19 19 18 18 18 18 17 16 16 16 12 11 10 11 12 12 12 11 11 12
28 19 19 21 23 16 13 6 9 7 6 5 7 13 23 23 28 40 43 30 25 24 23 20 20 19 18 19 20 20 18 18 17 16 14 13 12 12 12 12 12 12 12
20 16 15 20 20 16 14 10 11 11 4 3 6 8 11 19 20 26 28 29 24 24 22 21 20 21 22 24 23 23 23 21 20 19 17 16 15 14 14 15 14 14 14
12 13 15 24 20 22 19 17 14 9 8 9 8 8 13 16 18 22 29 35 28 23 21 23 24 25 27 26 28 28 26 25 23 22 21 19 18 17 16 15 16 15 15
16 17 20 16 18 18 17 16 17 23 17 9 6 3 8 11 16 18 19 27 32 29 20 23 25 26 28 29 29 32 27 25 24 24 23 22 20 19 18 17 17 16 17
19 18 17 15 17 17 19 21 23 22 22 18 16 7 7 9 12 17 18 24 31 33 26 27 26 26 28 32 32 33 30 28 29 27 26 23 21 21 20 19 18 18 18
18 20 25 26 27 22 22 20 15 17 22 23 20 19 12 11 11 12 15 19 24 29 36 21 30 26 28 31 33 33 33 32 33 30 28 25 25 23 21 21 21 19 20
Wind_Direction
208 210 214 219 222 224 229 230 235 243 251 260 269 277 286 294 298 301 306 311 346 71 73 58 66 44 23 24 27 27 28 10 29 14 17 31 7 5 355 356 1 19 54
205 209 208 214 218 220 225 228 231 235 242 251 259 272 283 291 299 306 311 345 78 94 89 93 75 60 39 29 55 50 42 37 11 24 45 21 18 12 354 354 10 360 358
200 204 207 209 214 218 223 225 227 232 234 243 252 261 275 284 298 307 6 76 98 104 101 90 83 69 56 53 48 35 37 38 18 18 15 25 13 9 3 18 24 35 12
194 200 206 207 210 216 221 223 225 225 228 237 241 252 262 275 283 302 106 110 110 109 100 96 90 83 76 66 55 42 15 1 24 25 19 21 15 8 6 7 20 26 23
189 196 201 205 208 212 216 217 219 216 222 227 227 235 246 264 256 143 138 125 114 115 107 100 102 102 86 66 66 48 34 33 26 29 23 21 14 7 10 358 0 20 353
189 195 197 200 204 208 210 206 201 200 205 209 215 224 235 275 157 159 137 134 129 124 112 108 107 97 93 79 74 70 64 54 44 28 28 20 14 4 359 340 348 349 12
192 194 195 194 200 204 207 207 200 196 199 197 205 213 216 169 184 147 136 136 135 131 127 126 119 110 98 88 77 71 62 58 60 53 42 32 18 5 343 332 344 16 27
196 196 198 196 198 199 202 198 191 192 194 191 194 197 167 166 159 143 138 137 136 134 134 131 127 127 113 93 89 82 79 67 58 53 53 50 36 21 357 354 351 173 105
199 199 200 198 195 192 196 194 188 190 188 188 188 187 162 161 156 148 140 138 137 135 134 133 133 130 134 106 96 90 74 83 38 42 54 51 39 29 25 30 22 28 29
197 197 197 197 198 195 187 184 186 187 183 186 184 177 174 166 161 154 147 148 145 141 138 137 140 140 132 114 104 101 86 71 52 55 51 52 49 31 22 35 36 38 29
197 194 193 192 194 192 182 177 181 184 178 192 165 155 160 170 167 162 155 161 155 150 149 148 152 145 137 127 96 110 125 115 38 54 50 48 43 43 39 39 49 53 49
192 190 187 187 188 183 179 174 178 179 164 173 154 146 162 170 173 169 170 167 164 157 160 155 158 150 138 121 106 115 134 56 54 54 52 51 43 41 53 60 62 61 57
185 184 182 184 187 172 177 173 174 180 177 167 164 154 161 169 176 174 172 168 162 165 158 156 157 151 141 131 128 133 123 73 72 63 61 59 51 36 114 100 92 59 60
175 178 179 179 183 170 181 182 186 188 192 181 184 179 175 172 173 175 171 169 166 158 157 159 154 152 159 151 130 76 66 80 80 74 67 72 62 53 55 80 85 60 68
174 176 180 181 180 175 190 189 202 194 201 193 193 188 183 184 186 177 175 173 167 164 150 153 157 161 164 176 170 127 125 128 100 84 77 74 73 65 55 53 61 64 65
170 174 180 181 183 183 183 170 198 186 203 191 189 188 194 196 189 183 177 177 172 164 160 167 178 179 170 178 169 162 142 144 124 105 92 85 81 73 67 63 68 73 73
171 170 177 201 181 186 192 194 189 146 177 185 177 187 192 191 192 186 180 179 180 164 174 179 183 186 184 175 174 169 160 153 147 126 112 105 99 93 80 74 76 79 79
123 153 191 194 186 191 182 202 201 192 192 186 184 190 185 185 189 187 179 180 173 178 191 189 188 186 186 179 180 173 157 158 160 153 138 119 112 105 96 88 84 83 82
31 59 344 138 117 159 179 199 201 191 186 172 170 176 173 180 187 187 183 177 186 194 202 196 194 188 189 184 180 177 164 168 165 161 155 137 122 115 105 99 87 88 91
14 79 55 51 142 160 162 164 141 179 147 166 181 174 173 171 174 179 187 194 198 200 203 199 194 192 186 188 179 172 177 168 165 172 165 158 147 138 131 128 120 107 100
9 33 63 54 35 36 28 54 137 165 175 190 182 187 188 183 185 189 194 204 208 204 205 203 193 191 186 186 184 178 188 181 176 173 175 169 168 154 144 137 129 121 116
6 21 51 54 55 42 26 15 19 11 354 199 173 187 206 180 192 202 204 209 214 216 206 202 199 189 192 194 191 183 185 194 186 177 179 177 175 170 161 154 149 138 135
24 27 43 51 44 51 31 18 7 351 356 343 9 157 184 205 208 215 208 216 211 224 212 203 203 191 192 192 193 189 188 198 191 184 180 182 182 178 176 171 161 160 154
30 28 40 39 41 52 35 26 17 11 9 339 318 250 198 216 216 227 226 221 211 216 222 214 207 205 192 192 193 194 192 197 194 188 187 185 187 185 183 182 180 173 163
30 36 41 36 42 38 32 28 18 7 5 5 3 275 268 237 236 229 230 230 226 216 212 211 207 213 202 195 193 193 194 197 193 191 189 190 190 189 191 189 188 184 180
26 27 31 24 21 17 26 25 11 1 7 359 353 360 310 247 248 243 234 228 236 232 221 217 209 215 211 205 199 198 196 197 196 194 191 195 190 190 200 198 191 194 190